Weather History for Oak Ridge, TN

Change the Weather History Date:

Sunday, November 24, 2013

  Actual Average (KTYS) Record (KTYS)
Temperature  
Mean Temperature 30 °F 47 °F  
Max Temperature 36 °F 57 °F 74 °F (1900)
Min Temperature 24 °F 37 °F 12 °F (1950)
Degree Days  
Heating Degree Days 35 18  
Month to date heating degree days 346  
Since 1 July heating degree days 565  
Cooling Degree Days 0 0  
Month to date cooling degree days 0  
Year to date cooling degree days 1523  
Moisture  
Dew Point 8 °F    
Average Humidity 41    
Maximum Humidity 57    
Minimum Humidity 27    
Precipitation  
Precipitation 0.00 in 0.15 in 1.77 in (2004)
Month to date precipitation 3.08  
Year to date precipitation 42.43  
Snow  
Snow 0.00 in 0.00 in - ()
Month to date snowfall 0.0  
Since 1 July snowfall 0.0  
Since 1 September snowfall 0.0  
Snow Depth -    
Sea Level Pressure  
Sea Level Pressure 30.57 in    
Wind  
Wind Speed 6 mph (NE)    
Max Wind Speed 9 mph    
Max Gust Speed 20 mph    
Visibility 10 miles    
Events      
T = Trace of Precipitation, MM = Missing Value Source: NWS Daily Summary

Daily Weather History Graph

Daily Weather History Graph

Search for Another Location

Airport:

Trip Planner

Search our weather history database for the weather conditions in past years. The results will help you decide how hot, cold, wet, or windy it might be!

Date:

Astronomy

Nov. 24, 2013 Rise Set
Actual Time 7:22 AM EST 5:24 PM EST
Civil Twilight 6:54 AM EST 5:52 PM EST
Nautical Twilight 6:23 AM EST 6:23 PM EST
Astronomical Twilight 5:52 AM EST 6:54 PM EST
Moon 11:43 PM EST (11/24) 12:15 PM EST (11/24)
Length of Visible Light 10h 57m
Length of Day
10h 01m
Waning Gibbous, 61% of the Moon is Illuminated
Nov 24
Waning Gibbous
Nov 25
Last Quarter
Dec 2
New
Dec 9
First Quarter
Dec 17
Full

Hourly Weather History & Observations

Time (EST) Temp. Windchill Dew Point Humidity Pressure Visibility Wind Dir Wind Speed Gust Speed Precip Events Conditions
12:53 AM 28.9 °F - 12.9 °F 51% 30.48 in 10.0 mi North - - N/A   Clear
1:53 AM 28.9 °F 21.1 °F 12.9 °F 51% 30.48 in 10.0 mi North 8.1 mph - N/A   Clear
2:53 AM 28.0 °F 21.7 °F 12.0 °F 51% 30.51 in 10.0 mi Variable 5.8 mph - N/A   Clear
3:53 AM 26.1 °F 18.4 °F 10.9 °F 53% 30.53 in 10.0 mi NNE 6.9 mph 19.6 mph N/A   Clear
4:53 AM 25.0 °F 17.1 °F 10.9 °F 55% 30.54 in 10.0 mi NNE 6.9 mph - N/A   Clear
5:53 AM 24.1 °F 16.0 °F 10.9 °F 57% 30.58 in 10.0 mi NNE 6.9 mph - N/A   Clear
6:53 AM 24.1 °F 17.0 °F 10.9 °F 57% 30.61 in 10.0 mi Variable 5.8 mph - N/A   Clear
7:53 AM 24.1 °F 17.0 °F 10.9 °F 57% 30.63 in 10.0 mi Variable 5.8 mph - N/A   Clear
8:53 AM 26.1 °F 19.4 °F 10.0 °F 51% 30.65 in 10.0 mi Variable 5.8 mph - N/A   Clear
9:53 AM 27.0 °F 18.0 °F 5.0 °F 39% 30.65 in 10.0 mi NNE 9.2 mph 18.4 mph N/A   Clear
10:53 AM 28.9 °F 20.4 °F 5.0 °F 36% 30.66 in 10.0 mi NE 9.2 mph 17.3 mph N/A   Clear
11:53 AM 32.0 °F 25.6 °F 3.9 °F 31% 30.63 in 10.0 mi ENE 6.9 mph - N/A   Clear
12:53 PM 34.0 °F 28.0 °F 3.9 °F 28% 30.61 in 10.0 mi Variable 6.9 mph - N/A   Clear
1:53 PM 34.0 °F 29.8 °F 3.9 °F 28% 30.57 in 10.0 mi Variable 4.6 mph - N/A   Clear
2:53 PM 35.1 °F 30.1 °F 3.9 °F 27% 30.55 in 10.0 mi Variable 5.8 mph - N/A   Clear
3:53 PM 36.0 °F 30.3 °F 5.0 °F 27% 30.55 in 10.0 mi NE 6.9 mph - N/A   Clear
4:53 PM 34.0 °F 29.8 °F 3.0 °F 27% 30.55 in 10.0 mi North 4.6 mph - N/A   Clear
5:53 PM 32.0 °F 27.5 °F 3.9 °F 31% 30.56 in 10.0 mi North 4.6 mph - N/A   Clear
6:53 PM 30.0 °F - 5.0 °F 35% 30.58 in 10.0 mi Calm Calm - N/A   Clear
7:53 PM 28.9 °F 23.9 °F 6.1 °F 38% 30.57 in 10.0 mi NE 4.6 mph - N/A   Clear
8:53 PM 28.9 °F 23.9 °F 6.1 °F 38% 30.55 in 10.0 mi Variable 4.6 mph - N/A   Clear
9:53 PM 28.9 °F 23.9 °F 6.1 °F 38% 30.55 in 10.0 mi NE 4.6 mph - N/A   Clear
10:53 PM 28.0 °F 22.8 °F 8.1 °F 43% 30.55 in 10.0 mi NE 4.6 mph - N/A   Clear
11:53 PM 28.0 °F 24.2 °F 9.0 °F 45% 30.54 in 10.0 mi ENE 3.5 mph - N/A   Clear